Location: B�rgermoos
(47.6500°N, 9.0667°E)
Time: 17:08:01
(UTC+00:00)

A-11 Canister half - Pass Details

Date: 08 August 2021
Orbit: 1526 x 1683 km, 47.3° (Epoch: 20 September)

Event Time Altitude Azimuth Distance (km) Brightness Sun altitude
Rises 11:44:37 0° 269° (W) 4,936 11.7 58.2°
Reaches altitude 10° 11:47:47 10° 270° (W) 3,946 11.4 58.1°
Maximum altitude 11:58:00 89° 182° (S) 1,670 10.5 57.8°
Drops below altitude 10° 12:07:59 10° 95° (E) 3,864 11.2 57.4°
Sets 12:11:03 0° 95° (E) 4,830 11.5 57.2°
